Regional Weather Roundup
Issued by NWS Charleston, SC

Home | Current Version | Previous Version | Text Only | Print | Product List | Glossary On
Versions: 1 2 3 4 5 6 7 8 9 10 11 12 13 14 15 16 17 18 19 20 21 22 23 24 25 26 27 28 29 30 31 32 33 34 35 36 37 38 39 40 41 42 43 44 45 46 47 48 49 50
000
ASUS42 KCHS 251912
RWRCHS

REGIONAL WEATHER ROUNDUP
NATIONAL WEATHER SERVICE CHARLESTON SC
300 PM EDT TUE JUL 25 2017

NOTE: "FAIR" INDICATES FEW OR NO CLOUDS BELOW 12,000 FEET WITH NO
SIGNIFICANT WEATHER AND/OR OBSTRUCTIONS TO VISIBILITY.

NOT ALL STATIONS ARE QUALITY CONTROLLED. USE DATA WITH CAUTION...
ESPECIALLY DEWPOINT OBSERVATIONS.

SCZ027-030-031-034>040-042>050-252000-
...SOUTHEAST SOUTH CAROLINA...

CITY           SKY/WX    TMP DP  RH WIND       PRES   REMARKS
N CHARLESTON   PTSUNNY   90  73  57 S5        30.04F HX  98
WATERFRONT PRK   N/A     87  80  79 S9        30.04F HX 103
JOHNS ISLAND   FAIR      90  79  70 S10       30.05F HX 105
PINOPOLIS        N/A     88  75  66 VRB2      29.99S HX  97
MONCKS CORNER  FAIR      90  72  55 N5        30.04F HX  96
SUMMERVILLE    FAIR      91  73  55 CALM      30.05F HX 100
BEAUFORT MCAS  CLOUDY    89  79  72 CALM      30.05F HX 104
BEAUFORT ARPT  FAIR      88  75  66 SW3       30.05F HX  97
HILTON HEAD IS MOSUNNY   88  79  74 E5        30.07F HX 102
WALTERBORO     CLEAR     90  75  62 SW5       30.05F HX 100
ALLENDALE      NOT AVBL

...SOUTHERN MIDLANDS AND PEE DEE...

CITY           SKY/WX    TMP DP  RH WIND       PRES   REMARKS
GEORGETOWN     CLOUDY    88  79  74 SE7       30.06S HX 102
KINGSTREE      FAIR      91  72  52 CALM      30.04F HX  98
ORANGEBURG     CLOUDY    90  73  57 SW5       30.05F HX  98
BARNWELL       MOCLDY    93  75  55 CALM      30.05F HX 104
AIKEN          FAIR      90  73  58 S5        30.09F HX  98
MANNING        MOCLDY    90  77  66 S6        30.04F HX 102
COLUMBIA       PTSUNNY   95  73  48 CALM      30.04S HX 104
SUMTER         PTSUNNY   92  75  57 SE8       30.02F HX 103
FLORENCE       MOSUNNY   91  75  59 VRB5      30.04F HX 101
MYRTLE BEACH   NOT AVBL
N MYRTLE BEACH SUNNY     88  75  65 S10       30.04S HX  97

$$

GAZ063-065-086>088-099>101-113>116-118-119-134>141-150-252000-
...SOUTHEAST GEORGIA...

CITY           SKY/WX    TMP DP  RH WIND       PRES   REMARKS
SAVANNAH ARPT  PTSUNNY   92  73  53 SW8       30.05F HX 100
HUNTER AAF     CLOUDY    91  78  65 S8        30.03F HX 105
FORT STEWART   PTSUNNY   90  74  59 SW3       30.03F HX  98
STATESBORO     CLOUDY    89  75  64 CALM      30.05F HX  99
SYLVANIA       CLOUDY    91  80  69 S3        30.06F HX 109
CLAXTON        CLOUDY    90  74  58 CALM      30.05F HX  99

...CSRA...CENTRAL AND FAR SOUTHEAST GEORGIA...

CITY           SKY/WX    TMP DP  RH WIND       PRES   REMARKS
THOMSON        CLOUDY    88  75  65 NW5       30.12S HX  98
AUGUSTA-BUSH   CLOUDY    93  75  55 E6        30.05S HX 104
AUGUSTA-DANIEL CLOUDY    92  71  50 SE9       30.07S HX  98
SWAINSBORO     CLOUDY    88  73  62 CALM      30.06F HX  96
VIDALIA        CLOUDY    91  73  55 CALM      30.06F HX 100
EASTMAN        FAIR      86  66  51 W3        30.09F
HAZLEHURST     CLOUDY    80  79  97 NW6       30.07S
ALMA           SUNNY     92  73  53 SW8       30.06F HX 100
WAYCROSS       MOSUNNY   95  77  55 SW6       30.06F HX 109
JESUP          NOT AVBL
BAXLEY         PTSUNNY   90  79  70 CALM      30.06F HX 105
BRUNSWICK      SUNNY     91  79  66 SW3       30.07F HX 107
SAINT SIMONS   MOSUNNY   90  79  70 SE9       30.07F HX 106

$$

SCZ027-028-034-036>038-045-046-048>050-GAZ119-141-252000-
...LAKE AND SUPPLEMENTAL COASTAL OBSERVATIONS...

STATION/POSITION TIME  TEMP    WIND        PRES    WAVE   SWELL
                       AIR SEA DIR/SP/G            HT/PER HT/PER/DIR
                 (UTC) (F)     (DEG/KT/KT) (MB)    (FT/S) (FT/S/D)
WINYAH BAY       1745   85     150/  8     1018.0
LAKE MURRAY      NOT AVBL
ACE BASIN NERRS  1745   88     180/  1     1018.0
FORT PULASKI     1848   86 85  100/  3/  5 1018.2F
SAPELO ISLAND    1800   90        CALM     1019.0

$$

ANZ835-935-AMZ111-154-330-350-352-354-370-450-454-472-252000-
...C-MAN AND BUOY OBSERVATIONS...

STATION/POSITION TIME  TEMP    WIND        PRES    WAVE   SWELL
                       AIR SEA DIR/SP/G            HT/PER HT/PER/DIR
                 (UTC) (F)     (DEG/KT/KT) (MB)    (FT/S) (FT/S/D)
BUOY 41004       1850   81 83  230/ 10/ 12 1018.0S   3/ 9   2/120/ 9
BUOY 41008       1850   81 82  190/ 12/ 12 1018.1F   2/ 9   2/120/ 9
FOLLY BEACH CMAN 1800   84     200/ 10/ 12 1018.8S
CAPERS NEARSHORE 1808   81 85  200/  8/ 14 1018.0
FRIPP NEARSHORE  1808   83 87  210/  6/ 10 1018.3S


STATION/POSITION TIME  TEMP    WIND        PRES    WAVE   SWELL
                       AIR SEA DIR/SP/G            HT/PER HT/PER/DIR
                 (UTC) (F)     (DEG/KT/KT) (MB)    (FT/S) (FT/S/D)
5E ST. MARYS GA  1830      79                N/A     1/10
FRYING PAN BUOY  1850   82 83  240/  8/ 10 1017.8F   4/ 6   3/180/ 6
BUOY 41025       1850   81 84  290/  4/  6 1018.0R   3/ 7   3/200/ 7
CAPE LOOKOUT NC  1800   83     220/  9/ 11 1017.1F
BUOY 41002       1750   80 83  270/ 14/ 17 1020.1    5/ 6   2/110/11
BUOY 41010       1850   85 85  240/  6/  8 1020.3F   3/11   2/110/11
ST AUGUSTINE FL  1900   80 78  140/  4/  5 1019.5F


$$



USA.gov is the U.S. government's official web portal to all federal, state and local government web resources and services.